EW1795 Weather Reports


time (UTC)temp
C
wind
direction
speed
KPH
gust
KPH
rain 1hr
cm
rain 24hr
cm
rain mn
cm
humidity
%
barometer
mb
20260504070151 14 318 25.7 51.5 0.00 0.00 0.00 52 990.7
20260504060146 15 254 8.0 16.1 0.00 0.00 0.00 41 990.6
20260504050143 15 306 12.9 40.2 0.00 0.00 0.00 39 993.4
20260504044546 15 248 11.3 32.2 0.00 0.00 0.00 37 992.0
20260504043043 15 262 12.9 27.4 0.00 0.00 0.00 38 991.8
20260504041541 15 196 12.9 30.6 0.00 0.00 0.00 38 992.2
20260504040138 15 228 11.3 27.4 0.00 0.00 0.00 38 992.6
20260504034543 15 234 12.9 27.4 0.00 0.00 0.00 38 993.1
20260504033041 15 193 11.3 24.1 0.00 0.00 0.00 38 993.6
20260504031537 15 200 6.4 17.7 0.00 0.00 0.00 37 994.1
20260504030134 16 227 8.0 19.3 0.00 0.00 0.00 37 994.7
20260504024558 16 199 6.4 20.9 0.00 0.00 0.00 36 995.2
20260504023055 16 200 9.7 17.7 0.00 0.00 0.00 35 995.7
20260504021553 16 189 6.4 17.7 0.00 0.00 0.00 35 995.9
20260504020153 17 269 6.4 20.9 0.00 0.00 0.00 34 996.2
20260504013103 17 261 9.7 19.3 0.00 0.00 0.00 33 996.8
20260504011550 17 214 9.7 22.5 0.00 0.00 0.00 32 997.1
20260504010146 18 271 8.0 22.5 0.00 0.00 0.00 32 997.5
20260504004550 18 196 6.4 17.7 0.00 0.00 0.00 32 997.9
20260504003048 18 226 9.7 22.5 0.00 0.00 0.00 32 998.2
20260504001553 17 245 8.0 25.7 0.00 0.00 0.00 33 998.6
20260504000142 18 280 9.7 25.7 0.00 0.00 0.00 32 998.8
20260503234550 18 233 11.3 32.2 0.00 0.00 0.00 32 999.2
20260503233053 18 245 14.5 29.0 0.00 0.00 0.00 30 999.4
20260503231544 18 242 12.9 37.0 0.00 0.00 0.00 30 999.9
20260503230141 18 200 11.3 25.7 0.00 0.00 0.00 29 1000.4
20260503224545 18 287 14.5 32.2 0.00 0.00 0.00 28 1000.8
20260503223041 18 309 6.4 27.4 0.00 0.00 0.00 29 1001.1
20260503221547 18 231 8.0 22.5 0.00 0.00 0.00 29 1001.6
20260503220005 17 181 9.7 22.5 0.00 0.00 0.00 29 1001.8
20260503214503 17 325 17.7 35.4 0.00 0.00 0.00 30 1002.2
20260503213058 18 206 12.9 24.1 0.00 0.00 0.00 30 1002.5
20260503211554 17 138 11.3 38.6 0.00 0.00 0.00 32 1002.9
20260503210003 17 123 20.9 35.4 0.00 0.00 0.00 31 1003.2
20260503204608 16 287 12.9 33.8 0.00 0.00 0.00 34 1003.5
20260503203106 16 286 8.0 35.4 0.00 0.00 0.00 33 1003.7
20260503201554 16 309 17.7 37.0 0.00 0.00 0.00 33 1003.9
20260503200151 15 309 16.1 33.8 0.00 0.00 0.00 35 1004.1
20260503194614 15 313 12.9 46.7 0.00 0.00 0.00 35 1004.6
20260503191549 15 346 19.3 37.0 0.00 0.00 0.00 36 1005.2
20260503190146 13 287 16.1 30.6 0.00 0.00 0.00 37 1005.6
20260503184555 14 234 11.3 29.0 0.00 0.00 0.00 37 1005.9
20260503183054 13 68 16.1 40.2 0.00 0.00 0.00 37 1006.1
20260503181545 13 264 9.7 24.1 0.00 0.00 0.00 39 1006.3
20260503180144 13 250 8.0 27.4 0.00 0.00 0.00 39 1006.5
20260503174545 13 290 9.7 29.0 0.00 0.00 0.00 38 1006.8
20260503173120 12 333 16.1 35.4 0.00 0.00 0.00 39 1007.0
20260503171546 12 338 14.5 33.8 0.00 0.00 0.00 40 1007.1
20260503170140 12 280 16.1 27.4 0.00 0.00 0.00 39 1007.2
20260503160135 11 323 14.5 27.4 0.00 0.00 0.00 40 1007.7
20260503150153 10 6 12.9 30.6 0.00 0.00 0.00 42 1007.9
20260503140148 7 313 12.9 32.2 0.00 0.00 0.00 54 1008.2
20260503130144 6 345 8.0 24.1 0.00 0.00 0.00 61 1008.1
20260503120141 5 334 8.0 24.1 0.00 0.00 0.00 67 1007.5
20260503110137 3 342 4.8 16.1 0.00 0.00 0.00 78 1007.1
20260503100150 4 318 0.0 0.0 0.00 0.00 0.00 87 1006.7
20260503090144 4 332 0.0 0.0 0.00 0.00 0.00 91 1006.6
20260503081555 5 320 3.2 12.9 0.00 0.00 0.00 90 1006.7